Content
SEND FEEDBACK

Daily
Averages
Monthly
Summary
Turkey

ADIYAMAN, TURKEY


Home > Middle East > Turkey
Elevation: 2224 feet     Latitude: 37 48N     Longitude: 038 18E

WEATHER
 
SELECT A DAY
Number of Records: 142,231;   Date Range: 7/1/96 - 8/12/14
 
SHARE

PRINT THIS DATA

[ ← Previous Day ]
WEATHER ALMANAC - MARCH 3, 2013
[ Next Day → ]
[ °C ]   °F
Weather ElementAverageHighLow
Temperature43.2 °F50 °F (2:50 pm)33.8 °F (3:20 am)
Dewpoint35.4 °F39.2 °F (6:20 pm)32 °F (12:50 am)
Humidity74.7 %93 % (3:20 am)58 % (3:20 pm)
Barometer30.02 in30.12 in (8:20 am)29.86 in (11:50 pm)
Wind Speed5.7 mph11.5 mph (4:20 pm)
Weather ElementAverage
Visibility6.2 mi
Wind DirectionSSW (217.9 °)

Weather ElementTotal
Precipitation---
Heating Degree Days23.1 (Base 65)
Averaged from 47 records on March 3, 2013
WEATHER CONDITIONS BREAKOUT
WIND DIRECTION BREAKOUT
WEATHER BY HOUR - MARCH 3, 2013
[ °C ]   °F
Local TimeTemperatureDewpointHumidityBarometerVisibilityWind DirectionWind SpeedGust SpeedPrecipitationEventsConditions
12:50 AM35.6 °F32.0 °F87 %30.09 inNW (310°)2.3 mphClear
1:20 AM37.4 °F32.0 °F81 %30.09 inNorth (350°)3.5 mphClear
1:50 AM37.4 °F32.0 °F81 %30.09 inNNW (340°)4.6 mphClear
2:20 AM37.4 °F32.0 °F81 %30.09 in6.2 miVariable1.2 mphMostly Cloudy
2:50 AM35.6 °F32.0 °F87 %30.09 in6.2 miSouth (190°)2.3 mphMostly Cloudy
3:20 AM33.8 °F32.0 °F93 %30.09 in6.2 miSW (220°)4.6 mphMostly Cloudy
3:50 AM35.6 °F32.0 °F87 %30.09 in6.2 miWNW (290°)2.3 mphMostly Cloudy
4:20 AM35.6 °F32.0 °F87 %30.09 in6.2 miVariable1.2 mphMostly Cloudy
4:50 AM33.8 °F32.0 °F93 %30.09 in6.2 miSSW (200°)3.5 mphMostly Cloudy
5:20 AM35.6 °F32.0 °F87 %30.09 in6.2 miWSW (250°)4.6 mphMostly Cloudy
5:50 AM33.8 °F32.0 °F93 %30.06 in6.2 miVariable2.3 mphMostly Cloudy
6:20 AM33.8 °F32.0 °F93 %30.09 in6.2 miSSW (210°)5.8 mphMostly Cloudy
6:50 AM35.6 °F32.0 °F87 %30.09 in6.2 miSW (220°)3.5 mphMostly Cloudy
7:20 AM37.4 °F33.8 °F87 %30.09 in6.2 miSSW (210°)3.5 mphMostly Cloudy
7:50 AM41.0 °F35.6 °F81 %30.09 in6.2 miSSW (200°)2.3 mphMostly Cloudy
8:20 AM42.8 °F32.0 °F66 %30.12 in6.2 miVariable2.3 mphMostly Cloudy
8:50 AM42.8 °F33.8 °F70 %30.12 in6.2 miVariable2.3 mphMostly Cloudy
9:20 AM42.8 °F33.8 °F70 %30.12 in6.2 miNNE (20°)5.8 mphMostly Cloudy
9:50 AM44.6 °F33.8 °F66 %30.09 in6.2 miNorth (10°)5.8 mphMostly Cloudy
10:20 AM44.6 °F33.8 °F66 %30.09 in6.2 miNNE (20°)5.8 mphMostly Cloudy
10:50 AM44.6 °F35.6 °F71 %30.09 in6.2 miENE (60°)5.8 mphMostly Cloudy
11:20 AM46.4 °F37.4 °F71 %30.06 in6.2 miNE (40°)5.8 mphMostly Cloudy
11:50 AM46.4 °F37.4 °F71 %30.06 in6.2 miNorth (360°)5.8 mphMostly Cloudy
12:20 PM46.4 °F37.4 °F71 %30.06 in6.2 miNorth (360°)5.8 mphMostly Cloudy
12:50 PM48.2 °F37.4 °F66 %30.04 in6.2 miNorth (350°)6.9 mphMostly Cloudy
1:20 PM48.2 °F37.4 °F66 %30.04 in6.2 miNorth (360°)8.1 mphMostly Cloudy
1:50 PM48.2 °F37.4 °F66 %30.04 in6.2 miNorth (360°)5.8 mphMostly Cloudy
2:20 PM48.2 °F37.4 °F66 %30.01 in6.2 miNorth (360°)5.8 mphMostly Cloudy
2:50 PM50.0 °F37.4 °F62 %29.98 in6.2 miNNE (20°)4.6 mphMostly Cloudy
3:20 PM50.0 °F35.6 °F58 %29.98 in6.2 miENE (70°)10.4 mphMostly Cloudy
3:50 PM50.0 °F35.6 °F58 %29.98 in6.2 miENE (70°)9.2 mphMostly Cloudy
4:20 PM50.0 °F35.6 °F58 %29.98 in6.2 miENE (70°)11.5 mphMostly Cloudy
4:50 PM48.2 °F35.6 °F62 %29.95 in6.2 miEast (80°)6.9 mphMostly Cloudy
5:20 PM46.4 °F37.4 °F71 %29.95 in6.2 miNW (320°)4.6 mphMostly Cloudy
5:50 PM46.4 °F37.4 °F71 %29.95 in6.2 miNorth (360°)5.8 mphMostly Cloudy
6:20 PM46.4 °F39.2 °F76 %29.95 in6.2 miNW (310°)6.9 mphMostly Cloudy
6:50 PM46.4 °F37.4 °F71 %29.98 in6.2 miNNW (330°)6.9 mphMostly Cloudy
7:20 PM46.4 °F39.2 °F76 %29.95 in6.2 miNNW (340°)6.9 mphMostly Cloudy
7:50 PM46.4 °F39.2 °F76 %29.95 in6.2 miNW (310°)6.9 mphMostly Cloudy
8:20 PM46.4 °F39.2 °F76 %29.95 in6.2 miNNW (340°)11.5 mphMostly Cloudy
8:50 PM46.4 °F39.2 °F76 %29.95 in6.2 miNNW (340°)6.9 mphMostly Cloudy
9:20 PM46.4 °F37.4 °F71 %29.92 in6.2 miNW (320°)5.8 mphMostly Cloudy
9:50 PM46.4 °F37.4 °F71 %29.92 in6.2 miNNW (340°)8.1 mphMostly Cloudy
10:20 PM46.4 °F37.4 °F71 %29.92 in6.2 miNNW (330°)8.1 mphMostly Cloudy
10:50 PM46.4 °F37.4 °F71 %29.89 in6.2 miNNW (340°)11.5 mphMostly Cloudy
11:20 PM46.4 °F37.4 °F71 %29.89 in6.2 miNNW (330°)8.1 mphMostly Cloudy
11:50 PM44.6 °F37.4 °F76 %29.86 in6.2 miNNW (330°)8.1 mphMostly Cloudy
Hourly data recorded from LTCP, located miles away from Adiyaman, Turkey







STORIES FROM OUR PARTNERS